TimeCST,TemperatureF,Dew PointF,Humidity,Sea Level PressureIn,VisibilityMPH,Wind Direction,Wind SpeedMPH,Gust SpeedMPH,PrecipitationIn,Events,Conditions,WindDirDegrees,DateUTC
12:15 AM,24.6,20.1,83,30.02,7.0,North,18.4,-,N/A,Snow,Light Snow,360,2014-01-05 06:15:00
12:35 AM,24.6,20.5,84,30.02,5.0,North,19.6,-,N/A,Snow,Light Snow,360,2014-01-05 06:35:00
12:55 AM,23.9,19.0,82,30.03,5.0,North,21.9,28.8,N/A,Snow,Light Snow,350,2014-01-05 06:55:00
1:15 AM,23.2,18.7,83,30.03,10.0,North,19.6,-,N/A,Snow,Light Snow,350,2014-01-05 07:15:00
1:35 AM,23.0,18.5,83,30.04,7.0,North,17.3,-,N/A,Snow,Light Snow,360,2014-01-05 07:35:00
1:55 AM,22.5,17.8,82,30.05,10.0,North,19.6,25.3,N/A,,Overcast,360,2014-01-05 07:55:00
2:15 AM,21.9,17.6,83,30.06,10.0,North,12.7,-,N/A,,Overcast,350,2014-01-05 08:15:00
2:35 AM,22.1,17.2,82,30.07,10.0,North,15.0,19.6,N/A,,Overcast,350,2014-01-05 08:35:00
2:55 AM,21.4,15.8,79,30.08,10.0,North,19.6,23.0,N/A,,Mostly Cloudy,350,2014-01-05 08:55:00
3:15 AM,20.1,15.1,81,30.09,10.0,North,12.7,-,N/A,,Mostly Cloudy,350,2014-01-05 09:15:00
3:35 AM,19.0,14.0,81,30.08,10.0,North,15.0,20.7,N/A,,Scattered Clouds,350,2014-01-05 09:35:00
3:55 AM,18.7,14.0,82,30.09,10.0,North,19.6,24.2,N/A,,Clear,350,2014-01-05 09:55:00
4:15 AM,18.5,14.0,83,30.09,10.0,North,18.4,23.0,N/A,,Clear,360,2014-01-05 10:15:00
4:35 AM,18.1,13.8,83,30.10,10.0,North,13.8,-,N/A,,Clear,350,2014-01-05 10:35:00
4:55 AM,16.9,12.9,84,30.09,10.0,North,9.2,-,N/A,,Clear,350,2014-01-05 10:55:00
5:15 AM,15.4,11.5,84,30.11,10.0,NW,5.8,-,N/A,,Clear,320,2014-01-05 11:15:00
5:35 AM,14.9,11.1,85,30.10,10.0,NNW,6.9,-,N/A,,Clear,330,2014-01-05 11:35:00
5:55 AM,15.6,11.5,84,30.10,10.0,North,11.5,-,N/A,,Clear,350,2014-01-05 11:55:00
6:15 AM,15.8,11.3,82,30.11,10.0,NNW,9.2,-,N/A,,Clear,340,2014-01-05 12:15:00
6:35 AM,14.5,10.4,84,30.12,10.0,NNW,6.9,-,N/A,,Clear,330,2014-01-05 12:35:00
6:55 AM,13.8,9.5,83,30.14,10.0,WNW,8.1,-,N/A,,Clear,300,2014-01-05 12:55:00
7:15 AM,12.9,8.6,83,30.16,10.0,NW,8.1,-,N/A,,Clear,310,2014-01-05 13:15:00
7:35 AM,12.7,8.4,83,30.16,10.0,WNW,6.9,-,N/A,,Clear,300,2014-01-05 13:35:00
7:55 AM,11.1,7.0,83,30.16,10.0,NW,8.1,-,N/A,,Clear,310,2014-01-05 13:55:00
8:15 AM,12.4,8.1,83,30.18,10.0,NW,9.2,-,N/A,,Clear,310,2014-01-05 14:15:00
8:35 AM,14.0,9.5,82,30.18,10.0,NW,8.1,-,N/A,,Clear,310,2014-01-05 14:35:00
8:55 AM,15.8,10.8,80,30.19,10.0,NW,9.2,-,N/A,,Clear,310,2014-01-05 14:55:00
9:15 AM,17.2,11.7,79,30.21,10.0,NW,8.1,-,N/A,,Clear,320,2014-01-05 15:15:00
9:35 AM,19.0,12.0,74,30.22,10.0,NNW,12.7,-,N/A,,Clear,340,2014-01-05 15:35:00
9:55 AM,19.8,10.4,67,30.22,10.0,North,16.1,-,N/A,,Clear,360,2014-01-05 15:55:00
10:15 AM,21.0,10.8,65,30.23,10.0,North,12.7,17.3,N/A,,Clear,360,2014-01-05 16:15:00
10:35 AM,21.9,11.8,65,30.23,10.0,North,11.5,-,N/A,,Clear,360,2014-01-05 16:35:00
10:55 AM,22.5,12.6,66,30.24,10.0,North,11.5,17.3,N/A,,Clear,360,2014-01-05 16:55:00
11:15 AM,23.7,12.2,61,30.24,10.0,North,12.7,17.3,N/A,,Clear,360,2014-01-05 17:15:00
11:35 AM,24.1,12.9,62,30.24,10.0,North,12.7,16.1,N/A,,Clear,360,2014-01-05 17:35:00
11:55 AM,24.8,12.4,59,30.23,10.0,North,9.2,16.1,N/A,,Clear,360,2014-01-05 17:55:00
12:15 PM,25.7,11.8,56,30.23,10.0,North,9.2,-,N/A,,Clear,360,2014-01-05 18:15:00
12:35 PM,26.1,11.3,54,30.22,10.0,North,8.1,-,N/A,,Clear,10,2014-01-05 18:35:00
12:55 PM,27.0,11.3,52,30.21,10.0,NNE,11.5,-,N/A,,Clear,30,2014-01-05 18:55:00
1:15 PM,27.1,11.1,51,30.21,10.0,North,8.1,-,N/A,,Clear,350,2014-01-05 19:15:00
1:35 PM,27.7,10.6,49,30.21,10.0,North,6.9,-,N/A,,Clear,350,2014-01-05 19:35:00
1:55 PM,28.4,10.2,47,30.20,10.0,North,9.2,-,N/A,,Clear,360,2014-01-05 19:55:00
2:15 PM,28.8,9.9,45,30.20,10.0,NNE,10.4,-,N/A,,Clear,20,2014-01-05 20:15:00
2:35 PM,29.3,10.0,45,30.20,10.0,North,10.4,-,N/A,,Clear,10,2014-01-05 20:35:00
2:55 PM,29.3,9.3,43,30.20,10.0,NNE,6.9,-,N/A,,Clear,20,2014-01-05 20:55:00
3:15 PM,29.3,9.9,44,30.21,10.0,North,3.5,-,N/A,,Clear,360,2014-01-05 21:15:00
3:35 PM,29.3,9.3,43,30.22,10.0,NE,6.9,-,N/A,,Clear,40,2014-01-05 21:35:00
3:55 PM,29.3,9.1,43,30.22,10.0,NE,6.9,-,N/A,,Clear,50,2014-01-05 21:55:00
4:15 PM,28.9,8.6,42,30.23,10.0,ENE,5.8,-,N/A,,Clear,60,2014-01-05 22:15:00
4:35 PM,28.4,9.1,44,30.24,10.0,ENE,5.8,-,N/A,,Clear,60,2014-01-05 22:35:00
4:55 PM,27.5,9.5,47,30.24,10.0,NE,6.9,-,N/A,,Clear,50,2014-01-05 22:55:00
5:15 PM,26.2,8.6,47,30.25,10.0,ENE,9.2,-,N/A,,Clear,60,2014-01-05 23:15:00
5:35 PM,24.6,8.6,51,30.26,10.0,NE,9.2,-,N/A,,Clear,50,2014-01-05 23:35:00
5:55 PM,22.8,8.6,55,30.27,10.0,NE,9.2,-,N/A,,Clear,40,2014-01-05 23:55:00
6:15 PM,21.2,8.4,58,30.28,10.0,NNE,10.4,-,N/A,,Clear,30,2014-01-06 00:15:00
6:35 PM,19.8,8.1,61,30.30,10.0,NE,10.4,-,N/A,,Clear,40,2014-01-06 00:35:00
6:55 PM,19.0,8.2,63,30.32,10.0,NE,10.4,-,N/A,,Clear,50,2014-01-06 00:55:00
7:15 PM,17.8,7.3,64,30.33,10.0,NE,11.5,-,N/A,,Clear,50,2014-01-06 01:15:00
7:35 PM,16.3,6.8,66,30.33,10.0,NE,11.5,-,N/A,,Clear,50,2014-01-06 01:35:00
7:55 PM,15.8,6.6,67,30.33,10.0,NE,13.8,-,N/A,,Clear,40,2014-01-06 01:55:00
8:15 PM,14.9,5.5,66,30.35,10.0,NE,16.1,-,N/A,,Clear,40,2014-01-06 02:15:00
8:35 PM,14.5,5.9,69,30.36,10.0,NE,16.1,20.7,N/A,,Clear,40,2014-01-06 02:35:00
8:55 PM,13.8,5.9,71,30.37,10.0,NE,16.1,20.7,N/A,,Clear,40,2014-01-06 02:55:00
9:15 PM,13.1,5.5,72,30.39,10.0,NE,15.0,-,N/A,,Clear,40,2014-01-06 03:15:00
9:35 PM,12.2,5.2,73,30.39,10.0,NE,16.1,21.9,N/A,,Clear,40,2014-01-06 03:35:00
9:55 PM,11.7,5.0,75,30.41,10.0,NNE,9.2,-,N/A,,Clear,30,2014-01-06 03:55:00
10:15 PM,10.9,4.8,76,30.42,10.0,NNE,5.8,-,N/A,,Clear,30,2014-01-06 04:15:00
10:35 PM,10.2,5.0,79,30.43,10.0,NNE,8.1,-,N/A,,Clear,30,2014-01-06 04:35:00
10:55 PM,10.4,4.8,78,30.44,10.0,NE,6.9,-,N/A,,Clear,40,2014-01-06 04:55:00
11:15 PM,10.2,4.8,79,30.46,10.0,Calm,Calm,-,N/A,,Mostly Cloudy,0,2014-01-06 05:15:00
11:35 PM,10.8,5.2,78,30.45,10.0,NE,8.1,-,N/A,,Overcast,40,2014-01-06 05:35:00
11:55 PM,11.7,5.9,78,30.45,10.0,NE,9.2,-,N/A,,Overcast,40,2014-01-06 05:55:00